(26) Proserpina
ephemeris date magn radius delta ra dec elong phase
Today13 Jun 202611.92.444 AU1.926 AU12h38m-03°04'108.4°23.2°
Opposition19 Aug 202710.82.612 AU1.603 AU22h03m-17°57'174.2°2.2°
(26) Proserpina - 2026-06-13
astro.vanbuitenen.nl


 
-1 year
-1 month
-1 day
Now
+1 day
+1 month
+1 year

The interactive orbit chart above shows the body's path through the solar system and its position at the given date. Green and blue lines are shown perpendicular to the ecliptic plane: Green if the path is above the ecliptic plane, blue if it is below. (Left-click and drag to rotate the view; Right-click and drag to move the view; Use scroll wheel to zoom in our out.)

The orbital elements of Proserpina are:

            e (Eccentricity)                : 0.0887077
            a (Semimajor axis)              : 2.6550796
            i (Inclination)                 : 3.55454
            Ω (Longitude of ascending node) : 45.68415
            ω (Argument of perihelion)      : 196.12059
            M (Mean anomaly)                : 335.10351
            Epoch                           : 2026 Jun 09

            L (Longitude of perihelion)     : 61.77533
            B (Latitude of perihelion)      : -0.98637
            P (Orbital period in years)     : 4.33            
        

The light curve chart below shows the estimated development of the minor planet's magnitude.


The all-sky chart below shows the path of the minor planet over the same period as the light curve. The current position is marked yellow.





The following chart shows the path of the minor planet in the next few days. The field of view is optimized for (~10x50) binoculars and finderscopes.




Ephemerides:
Date       Time       RA (2000)    DEC (2000)    delta   radius  elong  phase   PA    magn
2026-06-13 00:00 UT   12 38 21.4   -03 04 32     1.926    2.444  108.4   23.2   113   11.9 
2026-06-13 06:50 UT   12 38 29.9   -03 05 56     1.929    2.444  108.1   23.3   113   11.9 
2026-06-14 00:00 UT   12 38 51.6   -03 09 28     1.937    2.443  107.6   23.3   113   12.0 
2026-06-15 00:00 UT   12 39 23.1   -03 14 30     1.948    2.443  106.8   23.5   113   12.0 
2026-06-16 00:00 UT   12 39 55.9   -03 19 40     1.959    2.442  106.0   23.6   113   12.0 
2026-06-17 00:00 UT   12 40 30.0   -03 24 57     1.971    2.442  105.2   23.7   113   12.0 
2026-06-18 00:00 UT   12 41 05.3   -03 30 21     1.982    2.442  104.4   23.8   113   12.0 
2026-06-19 00:00 UT   12 41 41.9   -03 35 52     1.994    2.441  103.6   23.9   113   12.0 
2026-06-20 00:00 UT   12 42 19.7   -03 41 29     2.005    2.441  102.8   23.9   113   12.1 
2026-06-21 00:00 UT   12 42 58.7   -03 47 13     2.017    2.440  102.1   24.0   113   12.1 
2026-06-22 00:00 UT   12 43 39.0   -03 53 03     2.028    2.440  101.3   24.1   113   12.1 
2026-06-23 00:00 UT   12 44 20.4   -03 58 60     2.040    2.440  100.5   24.2   113   12.1 
2026-06-24 00:00 UT   12 45 02.9   -04 05 03     2.051    2.439   99.8   24.2   113   12.1 
2026-06-25 00:00 UT   12 45 46.6   -04 11 11     2.063    2.439   99.0   24.3   113   12.1 
2026-06-26 00:00 UT   12 46 31.5   -04 17 26     2.074    2.438   98.3   24.4   113   12.1 
2026-06-27 00:00 UT   12 47 17.4   -04 23 46     2.086    2.438   97.6   24.4   113   12.1 
2026-06-28 00:00 UT   12 48 04.4   -04 30 13     2.098    2.438   96.8   24.5   113   12.2 
2026-06-29 00:00 UT   12 48 52.5   -04 36 44     2.110    2.437   96.1   24.5   113   12.2 
2026-06-30 00:00 UT   12 49 41.6   -04 43 21     2.121    2.437   95.4   24.5   113   12.2 
2026-07-01 00:00 UT   12 50 31.8   -04 50 03     2.133    2.436   94.7   24.6   113   12.2 
2026-07-02 00:00 UT   12 51 23.1   -04 56 51     2.145    2.436   94.0   24.6   113   12.2 
2026-07-03 00:00 UT   12 52 15.3   -05 03 43     2.157    2.436   93.2   24.6   113   12.2 
2026-07-04 00:00 UT   12 53 08.5   -05 10 41     2.168    2.435   92.5   24.6   113   12.2 
2026-07-05 00:00 UT   12 54 02.7   -05 17 43     2.180    2.435   91.8   24.7   113   12.2 
2026-07-06 00:00 UT   12 54 57.9   -05 24 51     2.192    2.435   91.1   24.7   113   12.3 
2026-07-07 00:00 UT   12 55 54.1   -05 32 03     2.204    2.434   90.5   24.7   113   12.3 
2026-07-08 00:00 UT   12 56 51.2   -05 39 19     2.216    2.434   89.8   24.7   113   12.3 
2026-07-09 00:00 UT   12 57 49.2   -05 46 40     2.227    2.433   89.1   24.7   113   12.3 
2026-07-10 00:00 UT   12 58 48.2   -05 54 06     2.239    2.433   88.4   24.7   113   12.3 
2026-07-11 00:00 UT   12 59 48.1   -06 01 35     2.251    2.433   87.7   24.7   113   12.3 
2026-07-12 00:00 UT   13 00 48.8   -06 09 09     2.263    2.432   87.0   24.7   113   12.3 
2026-07-13 00:00 UT   13 01 50.5   -06 16 47     2.275    2.432   86.4   24.7   113   12.3 


    Terminology:
            
    delta:  distance between minor planet and earth in AU
    radius: distance between minor planet and sun in AU
    magn:   magnitude (brightness) estimate    
    ra:     right ascension in hours (24h = 360deg)
    dec:    declination in degrees
    elong:  elongation in degrees (angle sun-earth-minor planet)    
    phase:  phase angle in degrees (angle sun-minor planet-earth)        
    AU:     Astronomical Unit (mean distance between earth and sun: 149597870.7 km
    

Orbital elements provided by the MPC (Minor Planet Center).
Calculations by a modified version of AAPlus, a C# implementation of the AA+ project by PJ Naughter from the algorithms presented in the book "Astronomical Algorithms" by Jean Meeus.
NGC2000 dso catalog and star labels from VizieR as provided by the Strasbourg astronomical Data Center.
Tycho2 catalog from the ESO archive.